Topeka, KS

10:37 AM CST on November 21, 2019 (GMT -0600)
Billard Municipal

Weather History for KTOP - September, 2019

Change the Weather History Date:

Sunday, September 15, 2019

  Actual Average Record
Temperature  
Mean Temperature 85 °F 69 °F  
Max Temperature 94 °F 81 °F 100 °F (1939)
Min Temperature 76 °F 57 °F 39 °F (1961)
Degree Days  
Heating Degree Days 0 2  
Month to date heating degree days 0 12  
Since 1 July heating degree days 0 14  
Cooling Degree Days 20 5  
Month to date cooling degree days 188 110  
Year to date cooling degree days 1434 1338  
Growing Degree Days 34 (Base 50)    
Moisture  
Dew Point 67 °F    
Average Humidity 58    
Maximum Humidity 74    
Minimum Humidity 41    
Precipitation  
Precipitation 0.00 in 0.12 in 3.89 in (1905)
Month to date precipitation 1.22 1.84  
Year to date precipitation 42.11 28.41  
Snow  
Snow 0.00 in 0.00 in T in (1926)
Month to date snowfall 0.0 0.0  
Year to date snowfall 18.5 11.3  
Since 1 July snowfall T 0.0  
Snow Depth 0.00 in    
Sea Level Pressure  
Sea Level Pressure 29.99 in    
Wind  
Wind Speed 8 mph (SSW)    
Max Wind Speed 16 mph    
Max Gust Speed 26 mph    
Visibility 10 miles    
Events      
T = Trace of Precipitation, MM = Missing Value Source: NWS Daily Summary

Daily Weather History Graph

Daily Weather History Graph

Search for Another Location

Airport or City:

Astronomy

Sep. 15, 2019 Rise Set
Actual Time 7:03 AM CDT 7:31 PM CDT
Civil Twilight 6:36 AM CDT 7:57 PM CDT
Nautical Twilight 6:05 AM CDT 8:29 PM CDT
Astronomical Twilight 5:32 AM CDT 9:01 PM CDT
Moon 8:39 PM CDT (9/15) 8:14 AM CDT (9/15)
Length of Visible Light 13h 21m
Length of Day
12h 27m
Full, 98% of the Moon is Illuminated
Sep 15
Full
Sep 21
Last Quarter
Sep 28
New
Oct 5
First Quarter
Oct 13
Full

Hourly Weather History & Observations

Time (CDT) Temp. Heat Index Dew Point Humidity Pressure Visibility Wind Dir Wind Speed Gust Speed Precip Events Conditions
12:53 AM 78.1 °F - 68.0 °F 71% 30.01 in 10.0 mi South 4.6 mph - N/A   Clear
1:53 AM 78.1 °F - 68.0 °F 71% 30.01 in 10.0 mi South 8.1 mph - N/A   Clear
2:53 AM 78.1 °F - 69.1 °F 74% 30.01 in 10.0 mi SW 8.1 mph 19.6 mph N/A   Scattered Clouds
4:53 AM 77.0 °F - 68.0 °F 74% 30.00 in 10.0 mi SSW 6.9 mph - N/A   Scattered Clouds
5:53 AM 77.0 °F - 66.9 °F 71% 29.99 in 10.0 mi SSW 10.4 mph - N/A   Clear
6:53 AM 75.9 °F - 66.0 °F 71% 29.99 in 10.0 mi SSW 9.2 mph - N/A   Clear
7:53 AM 75.9 °F - 64.9 °F 69% 30.01 in 10.0 mi Variable 6.9 mph - N/A   Partly Cloudy
8:53 AM 79.0 °F - 66.0 °F 64% 30.01 in 10.0 mi SW 10.4 mph 18.4 mph N/A   Clear
9:53 AM 82.0 °F 84.1 °F 66.0 °F 58% 30.01 in 10.0 mi SW 8.1 mph 17.3 mph N/A   Clear
10:53 AM 86.0 °F 88.2 °F 66.0 °F 51% 30.02 in 10.0 mi SW 9.2 mph 21.9 mph N/A   Clear
11:53 AM 88.0 °F 90.3 °F 66.0 °F 48% 30.02 in 10.0 mi SSW 12.7 mph 23.0 mph N/A   Clear
12:53 PM 90.0 °F 92.4 °F 66.0 °F 45% 30.00 in 10.0 mi SSW 12.7 mph 20.7 mph N/A   Clear
1:53 PM 91.9 °F 94.5 °F 66.0 °F 42% 29.98 in 10.0 mi SW 11.5 mph - N/A   Clear
2:53 PM 93.9 °F 98.6 °F 68.0 °F 43% 29.97 in 10.0 mi SSW 10.4 mph 19.6 mph N/A   Clear
3:53 PM 93.0 °F 96.4 °F 66.9 °F 42% 29.96 in 10.0 mi SSW 11.5 mph 20.7 mph N/A   Clear
4:53 PM 91.9 °F 95.9 °F 68.0 °F 45% 29.95 in 10.0 mi South 12.7 mph - N/A   Clear
5:53 PM 91.0 °F 95.2 °F 68.0 °F 47% 29.95 in 10.0 mi South 5.8 mph - N/A   Clear
6:53 PM 88.0 °F 92.9 °F 70.0 °F 55% 29.95 in 10.0 mi South 8.1 mph - N/A   Clear
8:53 PM 81.0 °F 84.4 °F 70.0 °F 69% 29.97 in 10.0 mi South 4.6 mph - N/A   Clear
9:53 PM 79.0 °F - 69.1 °F 72% 29.99 in 10.0 mi SSW 4.6 mph - N/A   Clear
10:53 PM 78.1 °F - 68.0 °F 71% 30.00 in 10.0 mi SSW 4.6 mph - N/A   Clear
11:53 PM 77.0 °F - 68.0 °F 74% 30.00 in 10.0 mi South 5.8 mph - N/A   Clear